朱-ベーラム彗星

C/1997 L1 ( Zhu-Balam )

English version
Home page
Updated on November 17, 1998

---------------------------------------------------------------------

・ プロフィール

発見日 1997年6月3日
発見光度 16.7等
発見者 J. Zhu (Beijing Astronomical Observatory)

・ 軌道要素

   The following improved orbital elements by Kenji Muraoka, are 
  from 199 observations 1997 June 3 to 1998 Aug. 30, perturbations
  by 9 Planets, Moon and 5 minor planets were taken into account.
   The mean residual is +/- 0.70 arc seconds.


      Epoch  =  1996 Nov. 13.0  TT       JDT = 2450400.5
          T  =  1996 Nov. 22.70732       +/- 0.00558 (m.e.) TT
       Peri. =  346.34250                +/- 0.00065
       Node  =  233.29917                +/- 0.00048   (2000.0)
       Incl. =   72.98609                +/- 0.00055
          q  =    4.8992595              +/- 0.0000425 AU
          e  =    0.9981514              +/- 0.0000194
        1/a  =   +0.0003773              +/- 0.0000040 1/AU
  orig. 1/a  =   +0.000574  1/AU 
  fut.  1/a  =   +0.000906  1/AU 

・ 星図

・ 1996年 1月 8日〜1998年11月13日

・ 光度変化

        m1 = 7.0 + 5 logΔ + 10.0 log r

---------------------------------------------------------------------

軌道要素は村岡健治氏の計算によるものです。
星図は StellaNavigator Ver.2.0 for Windows (アストロアーツ 編著 / アスキー出版局刊) で作成したものです。
光度グラフはComet for Windowsで作成したものです。

---------------------------------------------------------------------

Copyright(C) Seiichi Yoshida (comet@aerith.net). All rights reserved.